Weather reports worldwide

Advertisment
Beirut, Lebanon (40100): temperature & dewpoint: 09.12.2019 19:00:00 - 15.12.2019 19:00:00 (EET)Beirut, Lebanon (40100): wind speed: 09.12.2019 19:00:00 - 15.12.2019 19:00:00 (EET)Beirut, Lebanon (40100): wind direction: 09.12.2019 19:00:00 - 15.12.2019 19:00:00 (EET)Beirut, Lebanon (40100): reduced air pressure: 09.12.2019 19:00:00 - 15.12.2019 19:00:00 (EET)Beirut, Lebanon (40100): visibility: 09.12.2019 19:00:00 - 15.12.2019 19:00:00 (EET)
Date & Time tt [°C] td [°C] ff [km/h] ff [kn] dd ppp [hPa] vv [km]
15.12.2019 19:00:00 - - - - - - -
15.12.2019 18:00:00 - - - - - - -
15.12.2019 17:00:00 18,2 4,5 9 5 N 1018,9 30
15.12.2019 16:00:00 - - - - - - -
15.12.2019 15:00:00 - - - - - - -
15.12.2019 14:00:00 19,6 3,0 13 7 N 1017,1 30
15.12.2019 13:00:00 - - - - - - -
15.12.2019 12:00:00 - - - - - - -
15.12.2019 11:00:00 19,2 0,9 5 3 - 1017,5 30
15.12.2019 10:00:00 - - - - - - -
15.12.2019 09:00:00 - - - - - - -
15.12.2019 08:00:00 15,8 1,2 8 4 E 1017,0 30
15.12.2019 07:00:00 - - - - - - -
15.12.2019 06:00:00 - - - - - - -
15.12.2019 05:00:00 15,8 2,7 9 5 E 1015,9 20
15.12.2019 04:00:00 - - - - - - -
15.12.2019 03:00:00 - - - - - - -
15.12.2019 02:00:00 16,6 2,7 9 5 SE 1016,5 20
15.12.2019 01:00:00 - - - - - - -
15.12.2019 00:00:00 - - - - - - -
14.12.2019 23:00:00 17,0 1,9 15 8 SE 1017,6 30
14.12.2019 22:00:00 - - - - - - -
14.12.2019 21:00:00 - - - - - - -
14.12.2019 20:00:00 16,6 3,0 15 8 SSE 1017,1 20
14.12.2019 19:00:00 - - - - - - -
14.12.2019 18:00:00 - - - - - - -
14.12.2019 17:00:00 16,5 5,5 26 14 S 1016,0 10
14.12.2019 16:00:00 - - - - - - -
14.12.2019 15:00:00 - - - - - - -
14.12.2019 14:00:00 18,9 7,5 31 17 SSW 1015,1 10
14.12.2019 13:00:00 - - - - - - -
14.12.2019 12:00:00 - - - - - - -
14.12.2019 11:00:00 18,8 9,7 31 17 S 1016,5 10
14.12.2019 10:00:00 - - - - - - -
14.12.2019 09:00:00 - - - - - - -
14.12.2019 08:00:00 16,4 10,5 26 14 S 1015,5 20
14.12.2019 07:00:00 - - - - - - -
14.12.2019 06:00:00 - - - - - - -
14.12.2019 05:00:00 17,0 10,7 28 15 S 1014,4 10
14.12.2019 04:00:00 - - - - - - -
14.12.2019 03:00:00 - - - - - - -
14.12.2019 02:00:00 14,8 13,4 9 5 - 1015,3 10
14.12.2019 01:00:00 - - - - - - -
14.12.2019 00:00:00 - - - - - - -
13.12.2019 23:00:00 16,5 12,1 22 12 S 1014,8 10
13.12.2019 22:00:00 - - - - - - -
13.12.2019 21:00:00 - - - - - - -
13.12.2019 20:00:00 16,9 11,5 24 13 S 1014,4 20
13.12.2019 19:00:00 - - - - - - -
13.12.2019 18:00:00 - - - - - - -
13.12.2019 17:00:00 17,2 11,7 26 14 S 1013,3 9
13.12.2019 16:00:00 - - - - - - -
13.12.2019 15:00:00 - - - - - - -
13.12.2019 14:00:00 16,6 11,6 37 20 S 1013,1 5
13.12.2019 13:00:00 - - - - - - -
13.12.2019 12:00:00 - - - - - - -
13.12.2019 11:00:00 15,3 13,0 21 11 S 1014,2 5
13.12.2019 10:00:00 - - - - - - -
13.12.2019 09:00:00 - - - - - - -
13.12.2019 08:00:00 16,5 11,7 13 7 S 1012,6 30
13.12.2019 07:00:00 - - - - - - -
13.12.2019 06:00:00 - - - - - - -
13.12.2019 05:00:00 16,2 10,4 15 8 SSE 1011,1 40
13.12.2019 04:00:00 - - - - - - -
13.12.2019 03:00:00 - - - - - - -
13.12.2019 02:00:00 15,1 10,5 15 8 S 1011,3 40
13.12.2019 01:00:00 - - - - - - -
13.12.2019 00:00:00 - - - - - - -
12.12.2019 23:00:00 15,3 9,5 8 4 - 1010,8 10
12.12.2019 22:00:00 - - - - - - -
12.12.2019 21:00:00 - - - - - - -
12.12.2019 20:00:00 14,7 10,6 9 5 SSE 1010,8 40
12.12.2019 19:00:00 - - - - - - -
12.12.2019 18:00:00 - - - - - - -
12.12.2019 17:00:00 15,1 12,1 9 5 - 1010,4 10
12.12.2019 16:00:00 - - - - - - -
12.12.2019 15:00:00 - - - - - - -
12.12.2019 14:00:00 20,3 10,5 28 15 SW 1008,2 30
12.12.2019 13:00:00 - - - - - - -
12.12.2019 12:00:00 - - - - - - -
12.12.2019 11:00:00 20,4 10,9 5 3 - 1009,6 10
12.12.2019 10:00:00 - - - - - - -
12.12.2019 09:00:00 - - - - - - -
12.12.2019 08:00:00 16,9 6,8 9 5 E 1010,8 20
12.12.2019 07:00:00 - - - - - - -
12.12.2019 06:00:00 - - - - - - -
12.12.2019 05:00:00 16,5 7,8 5 3 E 1011,0 30
12.12.2019 04:00:00 - - - - - - -
12.12.2019 03:00:00 - - - - - - -
12.12.2019 02:00:00 16,7 8,0 4 2 - 1012,9 10
12.12.2019 01:00:00 - - - - - - -
12.12.2019 00:00:00 - - - - - - -
11.12.2019 23:00:00 17,2 7,4 4 2 - 1014,0 10
11.12.2019 22:00:00 - - - - - - -
11.12.2019 21:00:00 - - - - - - -
11.12.2019 20:00:00 17,3 9,3 5 3 E 1015,0 10
11.12.2019 19:00:00 - - - - - - -
11.12.2019 18:00:00 - - - - - - -
11.12.2019 17:00:00 19,4 11,5 5 3 ESE 1014,4 10
11.12.2019 16:00:00 - - - - - - -
11.12.2019 15:00:00 - - - - - - -
11.12.2019 14:00:00 20,8 10,1 11 6 NNW 1014,4 30
11.12.2019 13:00:00 - - - - - - -
11.12.2019 12:00:00 - - - - - - -
11.12.2019 11:00:00 20,1 10,1 8 4 WNW 1015,9 10
11.12.2019 10:00:00 - - - - - - -
11.12.2019 09:00:00 - - - - - - -
11.12.2019 08:00:00 16,3 8,8 4 2 - 1016,2 10
11.12.2019 07:00:00 - - - - - - -
11.12.2019 06:00:00 - - - - - - -
11.12.2019 05:00:00 15,3 8,6 8 4 E 1015,4 40
11.12.2019 04:00:00 - - - - - - -
11.12.2019 03:00:00 - - - - - - -
11.12.2019 02:00:00 15,1 9,1 9 5 E 1016,8 40
11.12.2019 01:00:00 - - - - - - -
11.12.2019 00:00:00 - - - - - - -
10.12.2019 23:00:00 15,7 9,4 8 4 E 1017,2 10
10.12.2019 22:00:00 - - - - - - -
10.12.2019 21:00:00 - - - - - - -
10.12.2019 20:00:00 16,3 9,6 5 3 E 1016,9 10
10.12.2019 19:00:00 - - - - - - -
10.12.2019 18:00:00 - - - - - - -
10.12.2019 17:00:00 17,9 11,1 5 3 ESE 1016,1 10
10.12.2019 16:00:00 - - - - - - -
10.12.2019 15:00:00 - - - - - - -
10.12.2019 14:00:00 19,0 9,9 8 4 - 1015,3 40
10.12.2019 13:00:00 - - - - - - -
10.12.2019 12:00:00 - - - - - - -
10.12.2019 11:00:00 18,3 10,0 4 2 - 1016,6 30
10.12.2019 10:00:00 - - - - - - -
10.12.2019 09:00:00 - - - - - - -
10.12.2019 08:00:00 14,6 9,5 9 5 E 1016,9 30
10.12.2019 07:00:00 - - - - - - -
10.12.2019 06:00:00 - - - - - - -
10.12.2019 05:00:00 13,5 8,8 11 6 E 1015,7 40
10.12.2019 04:00:00 - - - - - - -
10.12.2019 03:00:00 - - - - - - -
10.12.2019 02:00:00 - - - - - - -
10.12.2019 01:00:00 - - - - - - -
10.12.2019 00:00:00 - - - - - - -
09.12.2019 23:00:00 14,1 10,7 9 5 ESE 1015,8 20
09.12.2019 22:00:00 - - - - - - -
09.12.2019 21:00:00 - - - - - - -
09.12.2019 20:00:00 14,5 10,2 13 7 S 1015,2 40
09.12.2019 19:00:00 - - - - - - -

tt = temperature
td = dewpoint
ff = wind speed
dd = wind direction
ppp = reduced air pressure
vv = visibility

Next stations